www.pogodaiklimat.ru

Погода и климат >> Архив погоды >> Иран >> Saravan


ПОГОДА в Saravan

  • Прогноз погоды в Saravan
  • Монитор погоды в Saravan
  • Климат города

АРХИВ ПОГОДЫ в Saravan

Время (UTC), дата Ветер
(напр.,м/с)
 
Видим.   Явления Облачность Т
(С)
Тd
(С)
f
(%)
Тe
(С)
Тes
(С)
Комфортность P
(гПа)
Po
(гПа)
Тmin
(С)
Tmax
(С)
R
(мм)
R24
(мм)
S
(см)
03 9.07 штиль 0 15 км ясно +28.4 +8.9 29 +28 +33 жарко 996.3 874.2 +23.5
06 9.07 штиль 0 15 км 1/0
[Ci fib]
+37.1 -2.4 8 +33 +57 опасность
солнечного
удара
995.8 874.3
09 9.07 ЮЗ 3 15 км 3/0
[Ci fib]
+40.7 -4.4 6 +37 +53 опасность
солнечного
удара
994.1 872.4
12 9.07 штиль 0 15 км ясно +41.2 -5.4 5 +37 +46 очень
жарко
993.1 871.0
15 9.07 СВ 4 15 км ясно +38.3 -5.8 6 +34 +34 очень
жарко
993.7 871.6 +42.0
18 9.07 Ю 2 15 км ясно +33.8 -3.2 9 +30 +30 жарко 994.9 873.5
21 9.07 штиль 0 15 км ясно +29.4 -6.1 9 +26 +26 жарко 994.6 873.0
00 10.07 штиль 0 15 км ясно +28.0 -5.7 11 +25 +25 комфорт 994.8 873.0
03 10.07 штиль 0 15 км 4/0
[Cs]
+31.1 -1.2 12 +28 +33 жарко 996.1 874.3 +27.4
06 10.07 СВ 8 12 км 4/0
[Ci sp]
+38.2 -4.0 7 +34 +37 очень
жарко
995.6 874.3
09 10.07 В 4 12 км 4/0
[Ci sp]
+40.2 -5.8 5 +36 +48 очень
жарко
994.5 872.8
12 10.07 В 5 12 км 6/0
[Cs]
+40.5 -4.5 6 +36 +39 очень
жарко
993.4 871.7
15 10.07 СВ 5 12 км 6/0
[Cs]
+38.6 -5.3 6 +34 +34 очень
жарко
993.4 871.9 +41.2
18 10.07 ЮЗ 2 12 км ясно +35.6 -5.9 7 +31 +31 жарко 994.3 873.4
21 10.07 штиль 0 12 км ясно +29.9 -5.6 10 +26 +26 жарко 994.7 873.1
00 11.07 штиль 0 12 км ясно +26.6 +1.9 20 +25 +25 комфорт 995.2 873.1
03 11.07 С 2 12 км ясно +30.6 -0.7 13 +27 +31 жарко 995.7 873.9 +24.6
06 11.07 СЗ 2 12 км ясно +37.2 -0.6 9 +33 +51 опасность
солнечного
удара
995.2 874.1
09 11.07 СЗ 4 12 км ясно +40.5 -4.0 6 +36 +50 очень
жарко
993.8 872.4
12 11.07 СЗ 4 12 км ясно +40.9 -1.9 7 +37 +42 очень
жарко
992.4 870.7
15 11.07 СВ 7 12 км ясно +37.8 -0.1 9 +34 +34 очень
жарко
992.3 870.8 +41.8
18 11.07 СВ 4 8000 м мгла ясно +35.6 -1.1 10 +32 +32 жарко 993.1 872.3
21 11.07 штиль 0 8000 м мгла ясно +32.8 +0.4 13 +30 +30 жарко 992.5 871.9
00 12.07 штиль 0 8000 м мгла ясно +30.7 +1.6 16 +28 +28 жарко 992.5 871.6
03 12.07 СЗ 2 3000 м пыль ясно +30.8 +3.5 18 +29 +32 жарко 994.1 872.5 +30.2
06 12.07 С 5 3000 м пыль ясно +37.1 +2.1 11 +34 +43 очень
жарко
993.3 872.5
09 12.07 З 8 4000 м пыльный позёмок ясно +38.9 +1.7 10 +35 +39 очень
жарко
992.0 871.2
12 12.07 С 5 5000 м пыль ясно +39.1 +2.6 10 +36 +39 очень
жарко
990.5 869.5
15 12.07 СВ 7 5000 м пыль ясно +36.4 +1.6 11 +33 +33 жарко 991.5 869.9 +39.8
18 12.07 СВ 3 5000 м пыль ясно +34.6 +0.5 12 +31 +31 жарко 992.2 871.3
21 12.07 штиль 0 6000 м пыль ясно +30.4 +0.9 15 +28 +28 жарко 992.3 871.0
00 13.07 штиль 0 8000 м мгла ясно +28.1 +2.0 19 +26 +26 жарко 992.7 871.0
03 13.07 СЗ 2 6000 м мгла ясно +29.4 +3.3 19 +27 +31 жарко 994.5 872.3 +26.1
06 13.07 штиль 0 6000 м мгла ясно +36.8 +1.7 11 +33 +58 опасность
солнечного
удара
994.0 872.9
09 13.07 С 3 8000 м мгла 1/0
[Ac As]
+39.3 +1.1 9 +36 +51 опасность
солнечного
удара
992.6 871.3
12 13.07 В 4 10 км 1/0
[Ac As]
+39.4 +1.0 9 +36 +40 очень
жарко
991.3 869.8
15 13.07 СВ 2 8000 м мгла 1/0
[Ac As]
+37.7 +0.5 10 +34 +34 очень
жарко
991.8 870.1 +40.7
18 13.07 ЮВ 2 8000 м мгла ясно +34.1 +13.1 28 +35 +35 очень
жарко
992.9 872.2
21 13.07 штиль 0 10 км ясно +30.9 +14.2 36 +33 +33 душно 993.0 872.2
00 14.07 штиль 0 10 км ясно +27.1 +0.5 18 +25 +25 комфорт 994.1 872.0
03 14.07 С 2 8000 м мгла 3/0
[Cc]
+28.1 -1.6 14 +25 +29 комфорт 995.6 873.2 +25.3
06 14.07 ЮВ 2 10 км ясно +37.5 +0.3 10 +34 +52 опасность
солнечного
удара
994.6 873.4
09 14.07 СЗ 2 10 км 3/0
[Ci sp]
+39.8 -0.1 8 +36 +55 опасность
солнечного
удара
992.9 871.7
12 14.07 СЗ 2 10 км 3/0
[Ci sp]
+40.5 -1.2 7 +36 +43 очень
жарко
991.6 870.0
15 14.07 С 2 12 км 3/0
[Ci sp]
+38.6 +6.5 14 +35 +35 очень
жарко
991.6 869.8 +41.3
18 14.07 ЮВ 2 10 км ясно +34.0 +14.9 32 +36 +36 душно 992.6 872.1
21 14.07 штиль 0 10 км ясно +31.5 +15.6 38 +34 +34 душно 991.9 871.5
00 15.07 штиль 0 10 км ясно +27.7 +15.5 47 +31 +31 душно 992.1 871.1
03 15.07 З 2 8000 м мгла 6/0
[Cs]
+28.1 +12.2 37 +29 +33 жарко 993.8 872.2 +25.8
06 15.07 СЗ 2 10 км 3/0
[Cs]
+37.9 +4.1 12 +35 +52 опасность
солнечного
удара
993.0 872.1
09 15.07 ЮЗ 3 10 км 3/0
[Ci sp]
+41.1 -0.3 8 +37 +53 опасность
солнечного
удара
991.2 870.6
12 15.07 З 3 12 км ясно +42.0 +6.6 12 +38 +44 очень
жарко
989.9 868.9
15 15.07 ЮВ 8 6000 м пыльный позёмок ясно +37.1 +15.7 28 +39 +39 очень
душно
990.5 869.2 +42.8
18 15.07 ЮВ 3 6000 м пыль ясно +33.9 +18.1 39 +38 +38 очень
душно
991.1 871.1
21 15.07 штиль 0 6000 м мгла ясно +31.7 +18.3 45 +36 +36 очень
душно
990.8 871.0
00 16.07 штиль 0 6000 м пыль ясно +28.3 +16.8 50 +32 +32 душно 991.0 870.6

 

Местоположение метеостанции Saravan (Иран): широта 27.33 долгота 62.33 высота над уровнем моря 1195 м.

В архиве по умолчанию представлена погода в Saravan за последнюю неделю. Архивные данные за месяц целиком и за предыдущие месяцы, начиная с января 2011 года, Вы можете получить, выбрав интересующий диапазон дат из раскрывающегося списка и нажав кнопку "Ввод!".


*Определитесь, кто Вы:
робот инопланетянин человек

Внимание! Время в таблицах - всемирное. Для получения местного времени необходимо прибавить поправку, которая в Saravan равна 3.5 ч.

Смотрите также архив погоды в соседних городах и на ближайших метеорологических станциях:

Погода в Iranshahr (Иран) (162 км)
Погода в Nokkundi (Пакистан) (171 км)
Погода в Panjgur (Пакистан) (180 км)
Погода в Gawadar (Пакистан) (245 км)
Погода в Pasni (Пакистан) (256 км)
Погода в Jiwani (Пакистан) (257 км)
Погода в Dal Bandin (Пакистан) (266 км)
Погода в Zahedan (Иран) (277 км)
Погода в Chah Bahar Airport (Иран) (285 км)
Погода в Zabol (Иран) (422 км)

Пояснения к столбцам:

Ветер - указаны скорость ветра в м/с - средняя за 10 мин, порывы в срок и между сроками (в фигурных скобках) и направление, откуда дует ветер: С - северный, СВ - северо-восточный, В - восточный, ЮВ - юго-восточный, Ю - южный, ЮЗ - юго-западный, З - западный, СЗ - северо-западный.
Видимость - горизонтальная дальность видимости в метрах или километрах. При видимости от 1 до 10 км при отсутствии осадков обычно наблюдается дымка, при ухудшении видимости до 1 км и менее - туман. В сухую погоду видимость может ухудшаться дымом, пылью или мглою.
Явления - указаны атмосферные явления, наблюдавшиеся в срок или в последний час перед сроком; фигурными скобками обозначены явления, наблюдавшиеся между сроками (за 1-3 часа до срока); квадратными скобками обозначены град или гололедные отложения с указанием их диаметра в мм.
Облачность - указаны через наклонную черту общая и нижняя облачность в баллах и высота нижней границы облаков в метрах; квадратными скобками обозначены формы облаков: Ci - перистые, Cs - перисто-слоистые, Cc - перисто-кучевые, Ac - высококучевые, As - высокослоистые, Sc - слоисто-кучевые, Ns - слоисто-дождевые, Cu - кучевые, Cb - кучево-дождевые. Подробнее классификацию облаков см. в Атласе облаков (PDF).
T - Температура воздуха - температура, измеренная на высоте 2 м над землей.
Td - Температура точки росы - температура, при понижении до которой содержащийся в воздухе водяной пар достигнет насыщения.
f - Относительная влажность воздуха - влажноcть воздуха, измеренная на высоте 2 м над землей.
Te - Эффективная температура - температура, которую ощущает одетый по сезону человек в тени. Характеристика душности погоды. При расчете учитывается влияние влажности воздуха и скорости ветра на теплоощущения человека.
Tes - Эффективная температура на солнце - температура, которую ощущает человек, с поправкой на солнечный нагрев. Характеристика знойности погоды. Зависит от высоты солнца над горизонтом, облачности и скорости ветра. Ночью, в пасмурную погоду, а также при ветре 12 м/с и более поправка равна нулю.
P - Атмосферное давление - приведенное к уровню моря атмосферное давление.
Po - Атмосферное давление - измеренное на уровне метеостанции атмосферное давление.
Tmin - Минимальная температура - минимум температуры воздуха на высоте 2 м над землей.
Tmax - Максимальная температура - максимум температуры воздуха на высоте 2 м над землей.
R - Количество осадков - Количество выпавших осадков за период времени, мм. При наведении курсора мыши на число - период времени, за который выпало указанное количество осадков.
R24 - Количество осадков - Количество выпавших осадков за 24 часа, мм.
S - Снежный покров - Высота снежного покрова, см. При наведении курсора мыши на число - состояние снежного покрова и степень покрытия местности в баллах.